Latest Weather Observations for Kuitpo

IDS60801

Issued at 2:01 pm CDT Wednesday 22 February 2017 (issued every 30 minutes, with the page automatically refreshed every 10 minutes)

About weather observations | Map of weather stations | Latest weather observations for SA | Other Formats
Station Details ID: 023887 Name: KUITPO FOREST RESERVE Lat: -35.17 Lon: 138.68 Height: 365.0 m
Data from the previous 72 hours. | See also: Recent months at Kuitpo
Date/Time
CDT
Temp
°C
App
Temp
°C
Dew
Point
°C
Rel
Hum
%
Delta-T
°C
Wind Press
QNH
hPa
Press
MSL
hPa
Rain since
9am
mm
Dir  Spd
km/h
Gust
km/h
Spd
kts
Gust
kts
22/02:00pm 21.7 16.2 12.0 54 5.5 W 32 54 17 29 1010.0 1008.7 0.0
22/01:32pm 21.8 16.8 10.9 50 6.1 WNW 28 48 15 26 1009.6 1008.2 0.0
22/01:30pm 22.2 17.7 11.3 50 6.2 WNW 26 48 14 26 1009.6 1008.2 0.0
22/01:14pm 23.5 18.4 9.1 40 7.9 WNW 26 46 14 25 1009.4 1008.0 0.0
22/01:00pm 24.1 19.9 8.1 36 8.6 NW 20 46 11 25 1009.2 1007.8 0.0
22/12:30pm 22.8 18.6 9.6 43 7.3 NW 22 39 12 21 1009.8 1008.5 0.0
22/12:00pm 21.6 18.1 12.2 55 5.4 W 22 41 12 22 1010.1 1008.8 0.0
22/11:36am 20.9 16.4 12.6 59 4.8 W 28 46 15 25 1010.5 1009.1 0.0
22/11:30am 20.7 16.9 12.4 59 4.8 WSW 24 41 13 22 1010.5 1009.1 0.0
22/11:00am 20.8 16.2 15.1 70 3.4 W 33 52 18 28 1010.3 1009.0 0.0
22/10:30am 24.8 17.2 5.6 29 10.0 NW 35 61 19 33 1010.0 1008.7 0.0
22/10:00am 26.5 19.0 3.7 23 11.5 NW 32 57 17 31 1009.4 1008.0 0.0
22/09:30am 26.5 19.7 3.1 22 11.7 NNW 28 54 15 29 1008.8 1007.4 0.0
22/09:00am 25.9 19.1 3.2 23 11.4 N 28 57 15 31 1008.5 1007.1 0.0
22/08:42am 25.1 18.3 3.1 24 10.9 NNW 28 48 15 26 1008.8 1007.4 0.0
22/08:30am 24.3 18.3 3.6 26 10.3 N 24 41 13 22 1008.4 1007.0 0.0
22/08:00am 24.2 18.1 2.9 25 10.5 N 24 48 13 26 1008.0 1006.6 0.0
22/07:30am 24.1 18.5 3.4 26 10.3 N 22 41 12 22 1007.8 1006.4 0.0
22/07:00am 23.6 18.3 3.0 26 10.1 N 20 41 11 22 1007.6 1006.2 0.0
22/06:30am 23.6 17.9 3.0 26 10.1 N 22 33 12 18 1007.4 1006.1 0.0
22/06:00am 23.1 18.3 2.6 26 10.0 N 17 30 9 16 1007.7 1006.3 0.0
22/05:30am 22.5 17.8 3.1 28 9.5 NNE 17 30 9 16 1007.7 1006.3 0.0
22/05:00am 20.9 16.5 2.7 30 8.7 NNE 15 26 8 14 1008.1 1006.7 0.0
22/04:30am 20.7 16.6 2.0 29 8.8 NNE 13 22 7 12 1008.4 1007.0 0.0
22/04:00am 20.9 16.3 1.7 28 9.0 NNE 15 26 8 14 1008.4 1007.0 0.0
22/03:30am 21.4 16.0 1.1 26 9.5 NNE 19 28 10 15 1008.9 1007.5 0.0
22/03:00am 21.4 16.0 2.6 29 9.0 NNE 20 30 11 16 1009.1 1007.7 0.0
22/02:30am 21.1 16.0 2.9 30 8.8 NNE 19 28 10 15 1009.5 1008.1 0.0
22/02:00am 20.6 16.0 3.8 33 8.2 NNE 17 24 9 13 1010.2 1008.9 0.0
22/01:30am 20.5 15.6 4.1 34 8.0 NNE 19 28 10 15 1010.6 1009.2 0.0
22/01:00am 20.5 15.6 4.1 34 8.0 NE 19 32 10 17 1010.9 1009.5 0.0
22/12:30am 19.9 14.9 4.8 37 7.5 NE 20 30 11 16 1011.3 1009.9 0.0
22/12:00am 19.9 14.6 4.8 37 7.5 NE 22 32 12 17 1011.5 1010.1 0.0
 
Date/Time
CDT
Temp
°C
App
Temp
°C
Dew
Point
°C
Rel
Hum
%
Delta-T
°C
Wind Press
QNH
hPa
Press
MSL
hPa
Rain since
9am
mm
Dir  Spd
km/h
Gust
km/h
Spd
kts
Gust
kts
21/11:30pm 20.3 15.0 5.1 37 7.6 NE 22 35 12 19 1012.0 1010.6 0.0
21/11:00pm 20.6 15.7 5.0 36 7.8 NE 20 32 11 17 1012.5 1011.2 0.0
21/10:30pm 20.8 15.9 5.2 36 7.8 NE 20 28 11 15 1013.0 1011.7 0.0
21/10:00pm 20.3 16.8 7.0 42 6.9 NE 15 20 8 11 1013.2 1011.9 0.0
21/09:30pm 20.3 18.3 8.6 47 6.2 NNE 9 17 5 9 1013.4 1012.0 0.0
21/09:00pm 21.5 20.0 9.1 45 6.7 NNW 7 13 4 7 1013.4 1012.0 0.0
21/08:30pm 22.6 21.9 8.7 41 7.5 E 2 6 1 3 1013.0 1011.7 0.0
21/08:00pm 23.5 21.8 8.4 38 8.2 SE 7 9 4 5 1012.7 1011.4 0.0
21/07:30pm 24.3 22.8 9.1 38 8.4 S 7 11 4 6 1012.6 1011.3 0.0
21/07:00pm 25.7 24.9 9.5 36 9.0 SSW 4 11 2 6 1012.4 1011.1 0.0
21/06:30pm 26.6 24.7 9.0 33 9.8 WSW 9 15 5 8 1012.6 1011.3 0.0
21/06:00pm 26.9 25.3 8.8 32 10.0 WNW 7 13 4 7 1012.6 1011.3 0.0
21/05:30pm 26.8 24.4 8.7 32 10.0 W 11 17 6 9 1012.9 1011.6 0.0
21/05:00pm 26.7 25.1 8.6 32 10.0 ENE 7 17 4 9 1013.1 1011.8 0.0
21/04:30pm 26.4 24.0 8.8 33 9.7 NE 11 20 6 11 1013.6 1012.2 0.0
21/04:00pm 25.4 23.4 7.1 31 9.8 WNW 7 20 4 11 1014.0 1012.6 0.0
21/03:30pm 25.7 22.7 7.8 32 9.7 NNE 13 22 7 12 1014.6 1013.3 0.0
21/03:00pm 25.9 23.4 8.0 32 9.7 NE 11 22 6 12 1015.1 1013.8 0.0
21/02:30pm 25.4 22.9 8.4 34 9.3 NNW 11 17 6 9 1015.7 1014.4 0.0
21/02:00pm 23.9 21.0 6.7 33 9.0 NNW 11 20 6 11 1016.0 1014.7 0.0
21/01:30pm 24.5 22.0 8.0 35 8.9 NNW 11 19 6 10 1016.3 1014.9 0.0
21/01:00pm 24.1 21.6 8.1 36 8.6 NW 11 19 6 10 1016.7 1015.3 0.0
21/12:30pm 22.6 19.7 8.0 39 7.8 NNW 13 20 7 11 1017.0 1015.7 0.0
21/12:00pm 22.6 20.2 8.7 41 7.5 NNW 11 19 6 10 1017.5 1016.2 0.0
21/11:30am 21.9 18.8 7.3 39 7.7 NW 13 22 7 12 1018.0 1016.7 0.0
21/11:00am 20.0 18.2 8.0 46 6.3 NNW 7 17 4 9 1018.0 1016.7 0.0
21/10:30am 19.4 17.3 8.4 49 5.8 NE 9 13 5 7 1018.1 1016.8 0.0
21/10:00am 17.9 15.3 9.3 57 4.6 NE 13 22 7 12 1018.1 1016.8 0.0
21/09:30am 15.8 11.8 8.1 60 3.9 NE 19 30 10 16 1018.0 1016.7 0.0
21/09:00am 14.1 9.9 7.4 64 3.3 NE 19 28 10 15 1018.3 1017.0 0.0
21/08:30am 12.5 8.3 7.4 71 2.5 NE 19 24 10 13 1018.2 1016.9 0.0
21/08:00am 11.1 6.5 6.5 73 2.2 ENE 20 26 11 14 1018.0 1016.7 0.0
21/07:30am 10.1 5.5 6.6 79 1.7 ENE 20 28 11 15 1017.7 1016.4 0.0
21/07:00am 9.4 4.5 6.8 84 1.2 ENE 22 28 12 15 1017.2 1015.9 0.0
21/06:30am 9.4 5.0 7.2 86 1.1 NE 20 26 11 14 1017.4 1016.1 0.0
21/06:00am 9.4 5.0 7.5 88 0.9 ENE 20 26 11 14 1017.1 1015.8 0.0
21/05:30am 9.5 5.3 7.4 87 1.0 ENE 19 24 10 13 1017.1 1015.8 0.0
21/05:00am 9.9 6.5 7.7 86 1.1 ENE 15 20 8 11 1017.2 1015.9 0.0
21/04:30am 10.0 5.6 7.6 85 1.2 ENE 20 26 11 14 1017.2 1015.9 0.0
21/04:00am 9.7 5.3 7.5 86 1.1 ENE 20 26 11 14 1017.1 1015.8 0.0
21/03:30am 10.3 6.5 7.7 84 1.3 ENE 17 24 9 13 1017.2 1015.9 0.0
21/03:00am 10.6 6.5 7.7 82 1.4 ENE 19 24 10 13 1017.3 1016.0 0.0
21/02:30am 10.5 6.3 7.6 82 1.4 E 19 24 10 13 1017.5 1016.2 0.0
21/02:00am 10.6 6.8 7.5 81 1.5 E 17 22 9 12 1017.9 1016.6 0.0
21/01:30am 10.7 6.3 7.4 80 1.6 E 20 24 11 13 1017.7 1016.4 0.0
21/01:00am 10.7 6.3 7.6 81 1.5 E 20 24 11 13 1017.8 1016.5 0.0
21/12:30am 10.8 6.7 7.7 81 1.5 E 19 24 10 13 1018.2 1016.9 0.0
21/12:00am 10.9 6.8 7.8 81 1.5 E 19 20 10 11 1018.6 1017.3 0.0
 
Date/Time
CDT
Temp
°C
App
Temp
°C
Dew
Point
°C
Rel
Hum
%
Delta-T
°C
Wind Press
QNH
hPa
Press
MSL
hPa
Rain since
9am
mm
Dir  Spd
km/h
Gust
km/h
Spd
kts
Gust
kts
20/11:30pm 10.8 7.0 7.5 80 1.6 ESE 17 20 9 11 1018.6 1017.3 0.0
20/11:00pm 10.9 7.0 7.0 77 1.9 ESE 17 22 9 12 1018.7 1017.4 0.0
20/10:30pm 10.8 7.2 6.6 75 2.0 ESE 15 20 8 11 1018.8 1017.5 0.0
20/10:00pm 11.2 8.0 6.7 74 2.2 SE 13 17 7 9 1018.5 1017.2 0.0
20/09:30pm 11.2 7.5 6.5 73 2.3 SE 15 24 8 13 1018.4 1017.1 0.0
20/09:00pm 11.7 8.1 6.6 71 2.5 SE 15 22 8 12 1018.1 1016.8 0.0
20/08:30pm 12.1 8.5 6.6 69 2.7 SE 15 24 8 13 1018.0 1016.7 0.0
20/08:00pm 12.9 9.3 6.7 66 3.0 SSE 15 22 8 12 1017.9 1016.6 0.0
20/07:30pm 13.8 10.3 7.1 64 3.3 SE 15 24 8 13 1017.4 1016.1 0.0
20/07:00pm 14.9 11.9 7.7 62 3.6 SSE 13 19 7 10 1016.9 1015.5 0.0
20/06:30pm 15.7 12.7 7.5 58 4.2 SSE 13 20 7 11 1016.8 1015.4 0.0
20/06:00pm 16.2 13.2 7.7 57 4.3 SE 13 20 7 11 1016.5 1015.1 0.0
20/05:30pm 16.8 13.8 7.7 55 4.7 SSE 13 28 7 15 1016.4 1015.0 0.0
20/05:00pm 17.7 15.2 8.0 53 5.0 S 11 19 6 10 1016.4 1015.0 0.0
20/04:30pm 16.9 14.5 8.8 59 4.2 S 11 17 6 9 1016.3 1014.9 0.0
20/04:00pm 17.2 14.9 8.9 58 4.4 S 11 20 6 11 1016.4 1015.0 0.0
20/03:30pm 18.0 15.1 8.3 53 5.1 WSW 13 20 7 11 1016.4 1015.0 0.0
20/03:00pm 19.1 15.7 9.3 53 5.3 WSW 17 24 9 13 1016.5 1015.1 0.0
20/02:30pm 18.9 16.4 8.3 50 5.6 SW 11 19 6 10 1016.7 1015.3 0.0
20/02:00pm 17.8 15.8 8.6 55 4.8 S 9 15 5 8 1017.0 1015.7 0.0
20/01:30pm 16.2 13.3 6.6 53 4.8 SW 11 20 6 11 1017.1 1015.8 0.0
20/01:00pm 17.0 13.9 7.1 52 5.0 WSW 13 22 7 12 1017.2 1015.9 0.0
20/12:30pm 16.0 13.6 7.2 56 4.4 WSW 9 13 5 7 1017.4 1016.1 0.0
20/12:00pm 15.2 12.2 6.2 55 4.4 SSW 11 20 6 11 1017.5 1016.2 0.0
20/11:30am 15.0 13.2 7.1 59 3.9 S 6 15 3 8 1017.7 1016.4 0.0
20/11:00am 15.3 13.0 7.3 59 4.0 S 9 17 5 9 1017.9 1016.6 0.0
20/10:30am 14.9 12.3 7.7 62 3.6 S 11 22 6 12 1018.0 1016.7 0.0
20/10:00am 14.9 12.3 7.7 62 3.6 S 11 15 6 8 1017.9 1016.6 0.0
20/09:30am 13.7 10.9 7.0 64 3.3 SSE 11 19 6 10 1017.7 1016.4 0.0
20/09:00am 13.4 10.3 7.4 67 3.0 SSE 13 20 7 11 1017.4 1016.1 0.8
20/08:30am 12.9 10.8 8.4 74 2.3 SE 9 17 5 9 1017.3 1016.0 0.8
20/08:00am 12.1 9.6 8.4 78 1.9 SSE 11 20 6 11 1017.1 1015.8 0.8
20/07:30am 10.8 8.3 8.4 85 1.2 SSE 11 17 6 9 1016.6 1015.2 0.8
20/07:00am 10.8 8.7 8.4 85 1.2 SE 9 15 5 8 1016.3 1014.9 0.8
20/06:30am 10.7 9.2 9.0 89 0.9 SE 7 11 4 6 1016.2 1014.8 0.8
20/06:00am 10.8 9.5 9.1 89 0.9 SE 6 11 3 6 1015.8 1014.5 0.8
20/05:30am 10.7 10.2 9.5 92 0.6 S 2 6 1 3 1015.7 1014.4 0.8
20/05:00am 11.0 9.6 9.6 91 0.7 SSE 7 11 4 6 1015.4 1014.1 0.8
20/04:30am 10.7 9.4 9.8 94 0.5 SE 7 11 4 6 1015.2 1013.9 0.8
20/04:00am 10.7 8.9 9.6 93 0.6 S 9 15 5 8 1015.3 1014.0 0.8
20/03:30am 10.5 9.1 9.6 94 0.5 SW 7 9 4 5 1015.5 1014.2 0.8
20/03:00am 10.2 8.7 9.3 94 0.5 SW 7 9 4 5 1015.4 1014.1 0.8
20/02:30am 10.4 9.2 9.5 94 0.5 SSW 6 9 3 5 1015.5 1014.2 0.8
20/02:00am 10.2 8.7 9.1 93 0.6 SW 7 11 4 6 1015.5 1014.2 0.8
20/01:30am 10.8 8.7 9.6 92 0.6 SSW 11 19 6 10 1015.6 1014.3 0.8
20/01:00am 10.7 7.4 9.5 92 0.6 S 17 30 9 16 1015.7 1014.4 0.8
20/12:30am 10.7 9.0 9.8 94 0.5 S 9 13 5 7 1015.8 1014.5 0.8
20/12:00am 10.7 8.2 9.8 94 0.5 SSW 13 17 7 9 1015.8 1014.5 0.8
 
Date/Time
CDT
Temp
°C
App
Temp
°C
Dew
Point
°C
Rel
Hum
%
Delta-T
°C
Wind Press
QNH
hPa
Press
MSL
hPa
Rain since
9am
mm
Dir  Spd
km/h
Gust
km/h
Spd
kts
Gust
kts
19/11:30pm 11.0 9.0 10.2 95 0.4 SSW 11 15 6 8 1016.0 1014.7 0.6
19/11:00pm 11.2 10.0 10.3 94 0.5 W 7 9 4 5 1016.4 1015.0 0.6
19/10:30pm 11.7 9.6 9.8 88 1.0 SW 11 17 6 9 1016.5 1015.1 0.6
19/10:00pm 11.7 9.5 9.3 85 1.2 SSW 11 17 6 9 1016.3 1014.9 0.6
19/09:30pm 12.0 9.2 8.7 80 1.7 SSW 13 20 7 11 1015.9 1014.6 0.6
19/09:00pm 12.5 10.0 8.2 75 2.2 SW 11 17 6 9 1015.6 1014.3 0.6
19/08:30pm 12.5 9.7 8.6 77 2.0 SW 13 20 7 11 1015.6 1014.3 0.6
19/08:00pm 12.7 8.9 9.0 78 1.9 SSW 19 30 10 16 1015.4 1014.1 0.6
19/07:30pm 13.0 10.6 10.0 82 1.6 SSW 13 26 7 14 1015.2 1013.9 0.6
19/07:00pm 13.8 10.4 9.3 74 2.3 SW 17 26 9 14 1014.9 1013.6 0.6
19/06:30pm 14.0 11.5 9.6 75 2.3 SSW 13 24 7 13 1014.8 1013.5 0.6
19/06:00pm 15.0 11.7 9.4 69 2.9 SW 17 32 9 17 1014.6 1013.3 0.6
19/05:30pm 14.7 11.9 10.1 74 2.4 SW 15 26 8 14 1014.7 1013.4 0.6
19/05:00pm 14.8 11.6 10.0 73 2.5 SSW 17 30 9 16 1014.8 1013.5 0.6
19/04:30pm 14.3 9.8 10.1 76 2.2 WSW 24 44 13 24 1014.6 1013.3 0.6
19/04:00pm 17.1 12.8 10.7 66 3.5 WSW 24 39 13 21 1014.5 1013.1 0.6
19/03:30pm 16.1 11.4 9.1 63 3.7 WSW 24 39 13 21 1014.7 1013.4 0.6
19/03:00pm 14.6 12.3 10.6 77 2.1 WSW 13 24 7 13 1015.0 1013.7 0.6
19/02:30pm 13.3 11.1 12.0 92 0.7 SW 15 24 8 13 1015.3 1014.0 0.6
19/02:11pm 12.7 7.5 10.1 84 1.4 WSW 28 50 15 27 1015.3 1014.0 0.2

Other Formats:

Comma delimited format used in spreadsheet applications
http://www.bom.gov.au/fwo/IDS60801/IDS60801.94683.axf

JavaScript Object Notation format (JSON) in row-major order
http://www.bom.gov.au/fwo/IDS60801/IDS60801.94683.json